Regional Weather Roundup
Issued by NWS

Home | Current Version | Previous Version | Text Only | Print | Product List | Glossary On
Versions: 1 2 3 4 5 6 7 8 9 10 11 12 13 14 15 16 17 18 19 20 21 22 23 24 25 26 27 28 29 30 31 32 33 34 35 36 37 38 39 40 41 42 43 44 45 46 47 48 49 50
380
ASUS44 KJAN 250220
RWRMS

MISSISSIPPI HOURLY WEATHER ROUNDUP
NATIONAL WEATHER SERVICE JACKSON MS
900 PM CDT SUN JUL 24 2016

NOTE: "FAIR: INDICATES FEW OR NO CLOUDS BELOW 12,000 FEET WITH NO
SIGNIFICANT WEATHER AND/OR OBSTRUCTIONS TO VISIBILITY.

MSZ001>002-007>008-010>013-018>021-025>028-034>036-250300-
NORTHWEST MISSISSIPPI

CITY           SKY/WX    TMP DP  RH WIND       PRES   REMARKS
CLEVELAND      FAIR      77  77 100 S5        29.96F
GREENWOOD      CLOUDY    79  73  82 CALM      29.98R
GREENVILLE     CLOUDY    78  73  84 CALM      29.95F
OXFORD         FAIR      77  77 100 CALM      30.01R
WINONA         MOCLDY    74  74  98 NE3       29.99S
$$

MSZ003>006-009-014>017-022>024-029>033-037>039-250300-
NORTHEAST MISSISSIPPI

CITY           SKY/WX    TMP DP  RH WIND       PRES   REMARKS
ABERDEEN       FAIR      81  63  54 CALM      30.00S
COLUMBUS AFB   PTCLDY    79  77  93 CALM      29.98R
GOLDN TRIANGLE CLEAR     82  73  74 NW3       29.98R
TUPELO         MOCLDY    84  75  74 CALM      29.99R HX  92
$$

MSZ040-058-250300-
CENTRAL MISSISSIPPI

CITY           SKY/WX    TMP DP  RH WIND       PRES   REMARKS
JACKSON INTL   PTCLDY    79  75  87 NE3       29.98R
JACKSON HAWKNS CLOUDY    80  75  84 CALM      29.98R
MADISON        FAIR      77  73  88 CALM      29.99R
MERIDIAN KEY   PTCLDY    78  74  87 W5        30.01R
MERIDIAN NAS   PTCLDY    85  72  65 S6        30.00R HX  91
VICKSBURG VKS  CLEAR     81  75  83 CALM      29.97R
$$

MSZ059>079-250300-
SOUTH MISSISSIPPI

CITY           SKY/WX    TMP DP  RH WIND       PRES   REMARKS
COLUMBIA       MOCLDY    75  73  94 CALM      30.02S
HATTIESBURG    CLOUDY    76  74  93 S3        30.00S
MCCOMB         CLOUDY    75  73  93 SW3       30.00R
NATCHEZ        CLOUDY    81  75  83 SE6       29.98R
PINE BELT      CLOUDY    57 N/A N/A SW6       30.01R
$$

MSZ080>082-250300-
COASTAL MISSISSIPPI

CITY           SKY/WX    TMP DP  RH WIND       PRES   REMARKS
BAY ST LOUIS   PTCLDY    81  75  83 MISG      29.97R
BILOXI         PTCLDY    85  76  73 SE5       29.97R HX  94
PASCAGOULA     PTCLDY    79  79 100 CALM      29.97S
GULFPORT       CLOUDY    84  75  74 SE5       29.96S HX  92
$$

LAZ007>009-015>016-023>026-250300-
NORTHEAST LOUISIANA

CITY           SKY/WX    TMP DP  RH WIND       PRES   REMARKS
BASTROP        FAIR      75  74  98 CALM      29.97S
TALLULAH/VBURG PTCLDY    79  76  90 SE5       29.97R
VIDALIA        MOCLDY    81  78  91 E5        29.99R
$$




USA.gov is the U.S. government's official web portal to all federal, state and local government web resources and services.